Starlink 3562

operational
NORAD ID: 51861 Int'l Des: 2022-022 Owner: SPXS Country: US Constellation: starlink
LEOCIRCULAR

关于 Starlink 3562

正在加载描述...

实时位置

正在加载3D地球...

即将过境

高度历史

Altitude vs Time

uPlot chart will show altitude changes over time

两行轨道根数

1 51861U 22022K 26036.52109382 .00000589 00000-0 55096-4 0 9997
2 51861 53.2176 153.5370 0001629 60.4852 299.6303 15.08839048218171
Epoch: Feb 5, 2026 • Age: 17 hours

当前状态

高度 541.1 km
速度 7.60 km/s
星下点 28.77°N, 94.47°E
发射日期 Mar 3, 2022
运行时间 3.9 years
类型 internet

技术详情

分类 Payload
质量 297.00 kg
干质量 275.00 kg
总质量 297.00 kg
长度 0.20 m
直径 2.80 m
跨度 9.00 m
形状 Box + pan
制造商 SPXS
平台类型 Starlink
阶段状态 In Orbit
所有者/国家 SPXS/US

大型星座

Loading constellations...